GW2830 Weather Reports


time (UTC)temp
C
wind
direction
speed
KPH
gust
KPH
rain 1hr
cm
rain 24hr
cm
rain mn
cm
humidity
%
barometer
mb
20260509064602 10 214 0.0 1.6 0.00 0.00 0.00 94 1001.5
20260509064100 10 190 1.6 3.2 0.00 0.00 0.00 94 1001.5
20260509063556 10 218 0.0 0.0 0.00 0.00 0.00 94 1001.1
20260509063053 10 189 1.6 3.2 0.00 0.00 0.00 93 1001.2
20260509062550 10 229 1.6 1.6 0.00 0.00 0.00 94 1001.5
20260509062048 10 197 1.6 1.6 0.00 0.00 0.00 93 1001.5
20260509061544 10 200 0.0 1.6 0.00 0.00 0.00 93 1001.3
20260509061042 11 216 0.0 1.6 0.00 0.00 0.00 93 1001.3
20260509060539 10 205 1.6 3.2 0.00 0.00 0.00 93 1001.5
20260509060034 10 220 1.6 1.6 0.00 0.00 0.00 93 1001.7
20260509055529 11 221 0.0 1.6 0.00 0.00 0.00 92 1001.8
20260509055021 11 227 3.2 3.2 0.00 0.00 0.00 91 1001.6
20260509054517 11 220 1.6 1.6 0.00 0.00 0.00 90 1001.8
20260509054016 11 204 3.2 3.2 0.00 0.00 0.00 91 1001.9
20260509053514 11 189 1.6 1.6 0.00 0.00 0.00 90 1001.9
20260509053010 11 230 1.6 3.2 0.00 0.00 0.00 91 1001.9
20260509052508 11 241 1.6 1.6 0.00 0.00 0.00 90 1002.0
20260509052006 11 184 1.6 1.6 0.00 0.00 0.00 90 1002.0
20260509051504 11 234 1.6 1.6 0.00 0.00 0.00 90 1002.0
20260509051001 11 228 0.0 1.6 0.00 0.00 0.00 90 1002.0
20260509050457 11 243 0.0 0.0 0.00 0.00 0.00 90 1001.8
20260509045953 11 240 1.6 1.6 0.00 0.00 0.00 89 1002.1
20260509045451 11 182 1.6 1.6 0.00 0.00 0.00 90 1001.9
20260509044948 11 190 1.6 1.6 0.00 0.00 0.00 90 1001.9
20260509044445 11 210 1.6 1.6 0.00 0.00 0.00 89 1002.2
20260509043942 11 232 0.0 1.6 0.00 0.00 0.00 89 1001.9
20260509043438 11 213 0.0 1.6 0.00 0.00 0.00 89 1002.2
20260509042934 11 228 3.2 3.2 0.00 0.00 0.00 88 1002.1
20260509042431 12 201 3.2 3.2 0.00 0.00 0.00 88 1002.1
20260509041927 11 215 1.6 3.2 0.00 0.00 0.00 88 1002.5
20260509041424 11 144 3.2 3.2 0.00 0.00 0.00 90 1002.3
20260509040922 12 214 0.0 1.6 0.00 0.00 0.00 88 1002.2
20260509040420 11 203 1.6 1.6 0.00 0.00 0.00 90 1002.2
20260509035917 11 225 0.0 0.0 0.00 0.03 0.03 90 1002.1
20260509035414 11 227 0.0 1.6 0.00 0.03 0.03 89 1002.2
20260509034910 12 210 0.0 0.0 0.00 0.03 0.03 88 1002.4
20260509034408 12 221 0.0 0.0 0.00 0.03 0.03 87 1002.3
20260509033905 12 231 0.0 1.6 0.00 0.03 0.03 87 1002.3
20260509033402 12 218 1.6 1.6 0.00 0.03 0.03 86 1002.6
20260509032858 12 200 1.6 3.2 0.00 0.03 0.03 86 1002.6
20260509032355 12 210 0.0 1.6 0.00 0.03 0.03 86 1002.7
20260509031854 12 233 0.0 1.6 0.00 0.03 0.03 86 1002.6
20260509031351 13 256 3.2 3.2 0.00 0.03 0.03 85 1002.6
20260509030848 13 199 1.6 3.2 0.00 0.03 0.03 85 1002.7
20260509030345 12 225 0.0 1.6 0.00 0.03 0.03 85 1002.6
20260509025837 12 279 1.6 1.6 0.00 0.03 0.03 86 1002.7
20260509025332 11 287 1.6 3.2 0.00 0.03 0.03 90 1002.6
20260509024827 11 267 0.0 0.0 0.00 0.03 0.03 90 1002.7
20260509024324 11 198 0.0 0.0 0.00 0.03 0.03 89 1002.7
20260509023821 11 199 0.0 1.6 0.00 0.03 0.03 89 1002.7
20260509023319 11 201 0.0 0.0 0.00 0.03 0.03 89 1002.7
20260509022815 11 206 0.0 0.0 0.00 0.03 0.03 89 1002.8
20260509022313 11 206 0.0 0.0 0.00 0.03 0.03 89 1002.8
20260509021809 11 206 0.0 0.0 0.00 0.03 0.03 88 1002.9
20260509021306 11 206 0.0 0.0 0.00 0.03 0.03 87 1002.7
20260509020804 11 206 0.0 0.0 0.00 0.03 0.03 87 1002.7
20260509020302 11 206 0.0 0.0 0.00 0.03 0.03 86 1002.8
20260509015759 11 206 0.0 0.0 0.00 0.03 0.03 85 1003.0
20260509015257 11 206 0.0 0.0 0.00 0.03 0.03 85 1002.9
20260509014753 11 206 0.0 0.0 0.00 0.03 0.03 84 1002.9
20260509014250 12 207 0.0 0.0 0.00 0.03 0.03 83 1002.7
20260509013747 12 207 0.0 0.0 0.00 0.03 0.03 82 1002.8
20260509013242 12 207 0.0 0.0 0.00 0.03 0.03 81 1002.6
20260509012739 12 207 0.0 0.0 0.00 0.03 0.03 81 1002.8
20260509012236 12 207 0.0 0.0 0.00 0.03 0.03 80 1002.7
20260509011733 12 207 0.0 0.0 0.00 0.03 0.03 80 1002.7
20260509011231 12 207 0.0 0.0 0.00 0.03 0.03 80 1002.7
20260509010729 12 207 0.0 0.0 0.00 0.03 0.03 81 1002.7
20260509010225 12 215 0.0 0.0 0.00 0.03 0.03 79 1002.7
20260509005722 12 215 0.0 0.0 0.00 0.03 0.03 78 1002.4
20260509005219 12 215 0.0 0.0 0.00 0.03 0.03 77 1002.4
20260509004714 13 215 0.0 0.0 0.00 0.03 0.03 76 1002.4
20260509004212 13 215 0.0 0.0 0.00 0.03 0.03 75 1002.3
20260509003710 13 215 0.0 0.0 0.00 0.03 0.03 74 1002.6
20260509003207 14 215 0.0 0.0 0.00 0.03 0.03 72 1002.3
20260509002704 15 215 0.0 0.0 0.00 0.03 0.03 71 1002.4
20260509002202 15 215 0.0 0.0 0.00 0.03 0.03 69 1002.5
20260509001659 15 215 0.0 0.0 0.00 0.03 0.03 67 1002.5
20260509001155 15 218 0.0 0.0 0.00 0.03 0.03 68 1002.2
20260509000653 15 209 0.0 0.0 0.00 0.03 0.03 69 1002.3
20260509000150 15 209 0.0 0.0 0.00 0.03 0.03 69 1002.1
20260508235647 15 300 0.0 0.0 0.00 0.03 0.03 70 1002.2
20260508235143 15 300 0.0 0.0 0.00 0.03 0.03 67 1002.5
20260508234640 15 277 0.0 1.6 0.00 0.03 0.03 67 1002.3
20260508234136 15 236 0.0 0.0 0.00 0.03 0.03 68 1002.4
20260508233631 16 236 0.0 0.0 0.00 0.03 0.03 65 1002.2
20260508233128 16 236 0.0 0.0 0.00 0.03 0.03 61 1002.6
20260508232625 16 236 0.0 0.0 0.00 0.03 0.03 62 1002.5
20260508232122 17 236 0.0 0.0 0.00 0.03 0.03 63 1002.4
20260508231619 17 238 0.0 1.6 0.00 0.03 0.03 59 1002.4
20260508231116 17 257 0.0 0.0 0.00 0.03 0.03 57 1002.4
20260508230613 17 183 0.0 0.0 0.00 0.03 0.03 59 1002.3
20260508230109 17 191 0.0 0.0 0.00 0.03 0.03 58 1002.4
20260508225607 17 218 0.0 0.0 0.00 0.03 0.03 58 1002.5
20260508225103 17 189 1.6 1.6 0.00 0.03 0.03 57 1002.5
20260508224601 18 211 0.0 0.0 0.00 0.03 0.03 54 1002.4
20260508224058 18 304 0.0 0.0 0.00 0.03 0.03 55 1002.5
20260508223556 19 289 0.0 0.0 0.00 0.03 0.03 54 1002.6
20260508223053 18 288 0.0 0.0 0.00 0.03 0.03 55 1002.4
20260508222550 18 304 0.0 1.6 0.00 0.03 0.03 54 1002.5
20260508222047 18 220 1.6 1.6 0.00 0.03 0.03 52 1002.7
20260508221543 18 225 0.0 0.0 0.00 0.03 0.03 58 1002.7
20260508221039 18 229 0.0 0.0 0.00 0.03 0.03 59 1002.7
20260508220536 19 241 1.6 1.6 0.00 0.03 0.03 54 1002.6
20260508220032 19 184 1.6 3.2 0.00 0.03 0.03 56 1002.7
20260508215529 18 259 0.0 0.0 0.00 0.03 0.03 59 1002.6
20260508215026 18 234 0.0 1.6 0.00 0.03 0.03 59 1002.7
20260508214524 17 60 0.0 0.0 0.00 0.03 0.03 61 1002.7
20260508214020 17 263 0.0 1.6 0.00 0.03 0.03 63 1002.9
20260508213517 17 220 1.6 1.6 0.00 0.03 0.03 62 1002.6
20260508213012 17 217 3.2 3.2 0.00 0.03 0.03 60 1002.9
20260508212504 18 188 4.8 4.8 0.00 0.03 0.03 59 1002.7
20260508212000 17 276 0.0 0.0 0.00 0.03 0.03 60 1002.9
20260508211455 18 173 4.8 4.8 0.00 0.03 0.03 57 1002.7
20260508210952 17 65 3.2 4.8 0.00 0.03 0.03 58 1002.8
20260508210449 17 198 3.2 4.8 0.00 0.03 0.03 59 1002.9
20260508205945 17 188 3.2 3.2 0.00 0.03 0.03 60 1003.1
20260508205443 17 217 0.0 1.6 0.00 0.03 0.03 60 1002.9
20260508204939 17 253 0.0 0.0 0.00 0.03 0.03 62 1003.0
20260508204437 18 208 1.6 3.2 0.00 0.03 0.03 58 1003.2
20260508203931 17 161 4.8 6.4 0.00 0.03 0.03 58 1003.3
20260508203428 17 190 0.0 1.6 0.00 0.03 0.03 59 1003.1
20260508202924 17 194 8.0 9.7 0.00 0.03 0.03 57 1003.3
20260508202421 18 178 3.2 4.8 0.00 0.03 0.03 56 1003.2
20260508201918 17 265 0.0 1.6 0.00 0.03 0.03 58 1003.5
20260508201415 17 257 1.6 1.6 0.00 0.03 0.03 62 1003.6
20260508200912 17 185 6.4 6.4 0.00 0.03 0.03 60 1003.8
20260508200409 18 289 0.0 1.6 0.00 0.03 0.03 57 1003.6
20260508195904 18 339 1.6 3.2 0.00 0.03 0.03 58 1003.6
20260508195401 17 177 3.2 4.8 0.00 0.03 0.03 61 1003.7
20260508194857 17 238 6.4 9.7 0.00 0.03 0.03 59 1003.8
20260508194354 17 196 0.0 1.6 0.00 0.03 0.03 63 1003.8
20260508193851 17 272 0.0 1.6 0.00 0.03 0.03 60 1003.7
20260508193348 17 268 1.6 1.6 0.00 0.03 0.03 63 1003.9
20260508192844 17 175 4.8 6.4 0.00 0.03 0.03 61 1004.0
20260508192342 17 168 1.6 1.6 0.00 0.03 0.03 62 1004.3
20260508191838 18 232 4.8 6.4 0.00 0.03 0.03 59 1004.0
20260508191336 18 184 3.2 3.2 0.00 0.03 0.03 60 1004.1
20260508190833 17 195 4.8 4.8 0.00 0.03 0.03 61 1004.3
20260508190329 17 149 1.6 3.2 0.00 0.03 0.03 62 1004.2
20260508185826 17 310 0.0 0.0 0.00 0.03 0.03 59 1004.7
20260508185323 18 73 3.2 6.4 0.00 0.03 0.03 57 1004.6
20260508184820 17 214 3.2 3.2 0.00 0.03 0.03 55 1004.8
20260508184318 17 188 1.6 1.6 0.00 0.03 0.03 56 1004.7
20260508183814 17 260 1.6 1.6 0.00 0.03 0.03 57 1004.8
20260508183311 17 178 8.0 11.3 0.00 0.03 0.03 55 1004.8
20260508182806 17 233 4.8 4.8 0.00 0.03 0.03 54 1004.9
20260508182306 16 275 3.2 4.8 0.00 0.03 0.03 50 1005.3
20260508181753 16 149 0.0 0.0 0.00 0.03 0.03 52 1005.1
20260508181250 16 272 3.2 4.8 0.00 0.03 0.03 52 1005.2
20260508180748 17 192 4.8 4.8 0.00 0.03 0.03 51 1005.3
20260508180244 17 213 3.2 3.2 0.00 0.03 0.03 49 1005.2
20260508175741 17 211 3.2 3.2 0.00 0.03 0.03 50 1005.3
20260508175237 18 237 3.2 4.8 0.00 0.03 0.03 46 1005.3
20260508174735 17 212 1.6 1.6 0.00 0.03 0.03 52 1005.5
20260508174233 16 242 0.0 1.6 0.00 0.03 0.03 45 1005.5
20260508173728 16 210 3.2 3.2 0.00 0.03 0.03 50 1005.6
20260508173225 17 311 0.0 0.0 0.00 0.03 0.03 59 1005.6
20260508172722 16 203 1.6 3.2 0.00 0.03 0.03 52 1005.9
20260508172219 16 98 1.6 1.6 0.00 0.03 0.03 53 1005.6
20260508171715 16 210 0.0 0.0 0.00 0.03 0.03 55 1006.1
20260508171211 16 18 3.2 4.8 0.00 0.03 0.03 49 1006.1
20260508170709 16 180 1.6 1.6 0.00 0.03 0.03 52 1006.2
20260508170206 16 268 3.2 3.2 0.00 0.03 0.03 50 1006.1
20260508165703 17 191 1.6 1.6 0.00 0.03 0.03 47 1006.2
20260508165200 16 242 1.6 1.6 0.00 0.03 0.03 51 1006.4
20260508164656 16 211 4.8 4.8 0.00 0.03 0.03 49 1006.5
20260508164153 16 255 4.8 6.4 0.00 0.03 0.03 42 1006.2
20260508163651 16 223 3.2 3.2 0.00 0.03 0.03 49 1006.1
20260508163148 16 282 3.2 3.2 0.00 0.03 0.03 54 1006.4
20260508162643 17 246 1.6 3.2 0.00 0.03 0.03 51 1006.4
20260508162141 16 355 0.0 0.0 0.00 0.03 0.03 51 1006.6
20260508161638 16 195 1.6 1.6 0.00 0.03 0.03 48 1006.7
20260508161135 15 218 1.6 3.2 0.00 0.03 0.03 49 1006.8
20260508160634 15 222 1.6 1.6 0.00 0.03 0.03 55 1006.8
20260508160131 15 212 1.6 1.6 0.00 0.03 0.03 59 1006.9
20260508155628 14 199 4.8 4.8 0.00 0.03 0.03 64 1006.9
20260508155124 15 281 3.2 4.8 0.00 0.03 0.03 61 1006.9
20260508154621 15 208 3.2 3.2 0.00 0.03 0.03 61 1006.8
20260508154118 14 162 3.2 3.2 0.00 0.03 0.03 64 1007.0
20260508153615 15 271 1.6 1.6 0.00 0.03 0.03 71 1007.1
20260508153112 15 227 3.2 3.2 0.00 0.03 0.03 69 1006.9
20260508152609 14 195 1.6 1.6 0.00 0.03 0.03 72 1006.6
20260508152104 14 251 1.6 3.2 0.00 0.03 0.03 74 1006.6
20260508151601 13 190 1.6 3.2 0.00 0.03 0.03 77 1006.8
20260508151058 14 247 0.0 1.6 0.00 0.03 0.03 78 1006.7
20260508150555 13 222 3.2 3.2 0.00 0.03 0.03 79 1006.8
20260508150050 12 202 0.0 0.0 0.00 0.03 0.03 80 1006.9
20260508145542 12 236 1.6 1.6 0.00 0.03 0.03 80 1006.9
20260508145038 12 193 1.6 1.6 0.00 0.03 0.03 79 1006.8
20260508144536 12 241 3.2 3.2 0.00 0.03 0.03 81 1006.8
20260508144033 13 242 0.0 0.0 0.00 0.03 0.03 81 1006.7
20260508143531 13 187 3.2 4.8 0.00 0.03 0.03 81 1006.8
20260508143027 12 197 0.0 1.6 0.00 0.03 0.03 83 1006.7
20260508142524 13 186 6.4 6.4 0.00 0.03 0.03 81 1007.0
20260508142020 12 267 1.6 1.6 0.00 0.03 0.03 85 1006.8
20260508141517 12 221 3.2 3.2 0.00 0.03 0.03 85 1007.0
20260508141015 11 199 3.2 4.8 0.00 0.03 0.03 87 1007.2
20260508140512 11 213 1.6 1.6 0.00 0.03 0.03 90 1007.3
20260508140008 10 195 1.6 1.6 0.00 0.03 0.03 93 1007.3
20260508135504 10 182 3.2 3.2 0.00 0.03 0.03 94 1007.2
20260508135001 10 106 0.0 1.6 0.00 0.03 0.03 97 1007.2
20260508134457 10 187 1.6 1.6 0.00 0.03 0.03 98 1007.2
20260508133954 10 220 0.0 0.0 0.00 0.03 0.03 99 1007.4
20260508133451 9 181 1.6 3.2 0.00 0.03 0.03 99 1007.3
20260508132948 8 232 1.6 1.6 0.00 0.03 0.03 99 1007.1
20260508132446 9 244 3.2 3.2 0.00 0.03 0.03 99 1007.3
20260508131942 8 291 1.6 1.6 0.00 0.03 0.03 99 1007.3
20260508131438 8 227 1.6 1.6 0.00 0.03 0.03 99 1007.1
20260508130934 8 228 1.6 1.6 0.00 0.03 0.03 99 1007.1
20260508130431 8 225 0.0 0.0 0.00 0.03 0.03 99 1007.1
20260508125927 8 227 0.0 0.0 0.00 0.03 0.03 99 1007.4
20260508125424 8 207 1.6 1.6 0.00 0.03 0.03 99 1007.1
20260508124922 8 224 0.0 0.0 0.00 0.03 0.03 99 1007.3
20260508124419 7 221 0.0 0.0 0.00 0.03 0.03 99 1007.3
20260508123917 7 209 0.0 1.6 0.00 0.03 0.03 99 1007.4
20260508123416 7 202 1.6 1.6 0.00 0.03 0.03 99 1007.5
20260508122911 7 239 0.0 0.0 0.00 0.03 0.03 99 1007.3
20260508122409 7 204 0.0 0.0 0.00 0.03 0.03 99 1007.1
20260508121905 6 189 0.0 0.0 0.00 0.03 0.03 99 1007.3
20260508121403 6 189 0.0 0.0 0.00 0.03 0.03 99 1007.3
20260508120901 6 189 0.0 0.0 0.00 0.03 0.03 99 1007.2
20260508120358 6 189 0.0 0.0 0.00 0.03 0.03 99 1007.2
20260508115855 6 187 0.0 0.0 0.00 0.03 0.03 99 1007.1
20260508115353 6 187 0.0 0.0 0.00 0.03 0.03 99 1007.1
20260508114849 5 187 0.0 0.0 0.00 0.03 0.03 99 1007.0
20260508114346 5 193 0.0 0.0 0.00 0.03 0.03 99 1006.9
20260508113843 5 193 0.0 0.0 0.00 0.03 0.03 99 1007.0
20260508113342 5 196 0.0 0.0 0.00 0.03 0.03 99 1007.0
20260508112838 5 196 0.0 0.0 0.00 0.03 0.03 99 1007.0
20260508112336 4 197 0.0 0.0 0.00 0.03 0.03 99 1006.9
20260508111832 3 190 0.0 0.0 0.00 0.03 0.03 99 1006.9
20260508111329 3 190 0.0 0.0 0.00 0.03 0.03 99 1007.1
20260508110826 3 190 0.0 0.0 0.00 0.03 0.03 99 1006.8
20260508110324 3 190 0.0 0.0 0.00 0.03 0.03 99 1006.8
20260508105823 3 190 0.0 0.0 0.00 0.03 0.03 99 1006.6
20260508105320 2 190 0.0 0.0 0.00 0.03 0.03 99 1006.8
20260508104817 2 190 0.0 0.0 0.00 0.03 0.03 99 1006.5
20260508104314 2 190 0.0 0.0 0.00 0.03 0.03 99 1006.5
20260508103811 2 190 0.0 0.0 0.00 0.03 0.03 99 1006.5
20260508103308 2 190 0.0 0.0 0.00 0.03 0.03 99 1006.6
20260508102806 2 190 0.0 0.0 0.00 0.03 0.03 99 1006.4
20260508102306 2 190 0.0 0.0 0.00 0.03 0.03 99 1006.6
20260508101800 2 190 0.0 0.0 0.00 0.03 0.03 99 1006.7
20260508101258 2 190 0.0 0.0 0.00 0.03 0.03 99 1006.8
20260508100755 2 190 0.0 0.0 0.00 0.03 0.03 99 1006.8
20260508100254 3 190 0.0 0.0 0.00 0.03 0.03 99 1007.0
20260508095749 3 190 0.0 0.0 0.00 0.03 0.03 99 1006.7
20260508095247 3 190 0.0 0.0 0.00 0.03 0.03 99 1006.8
20260508094744 3 190 0.0 0.0 0.00 0.03 0.03 99 1006.7
20260508094241 3 190 0.0 0.0 0.00 0.03 0.03 99 1006.4
20260508093738 3 190 0.0 0.0 0.00 0.03 0.03 99 1006.8
20260508093235 3 190 0.0 0.0 0.00 0.03 0.03 99 1006.6
20260508092732 3 190 0.0 0.0 0.00 0.03 0.03 99 1006.6
20260508092230 3 190 0.0 0.0 0.00 0.03 0.03 99 1006.7
20260508091728 3 192 0.0 0.0 0.00 0.03 0.03 99 1006.7
20260508091225 3 192 0.0 0.0 0.00 0.03 0.03 99 1006.7
20260508090722 3 192 0.0 0.0 0.00 0.03 0.03 99 1006.7
20260508090220 3 192 0.0 0.0 0.00 0.03 0.03 99 1007.1
20260508085716 3 193 0.0 0.0 0.00 0.03 0.03 99 1006.6
20260508085213 3 201 0.0 0.0 0.00 0.03 0.03 99 1006.8
20260508084709 3 203 0.0 0.0 0.00 0.03 0.03 99 1006.8
20260508084207 3 203 0.0 0.0 0.00 0.03 0.03 99 1006.7
20260508083704 3 203 0.0 0.0 0.00 0.03 0.03 99 1006.8
20260508083202 3 203 0.0 0.0 0.00 0.03 0.03 99 1006.7
20260508082656 3 212 0.0 0.0 0.00 0.03 0.03 99 1006.8
20260508082154 3 213 0.0 0.0 0.00 0.03 0.03 99 1006.6
20260508081651 3 213 0.0 0.0 0.00 0.03 0.03 99 1006.7
20260508081147 3 213 0.0 0.0 0.00 0.03 0.03 99 1006.6
20260508080645 3 213 0.0 0.0 0.00 0.03 0.03 99 1006.8
20260508080143 3 213 0.0 0.0 0.00 0.03 0.03 99 1006.6
20260508075639 4 213 0.0 0.0 0.00 0.03 0.03 99 1006.8
20260508075136 4 212 0.0 0.0 0.00 0.03 0.03 99 1006.9
20260508074634 4 212 0.0 0.0 0.00 0.03 0.03 99 1006.9
20260508074131 4 212 0.0 0.0 0.00 0.03 0.03 99 1006.7
20260508073628 4 212 0.0 0.0 0.00 0.03 0.03 99 1006.9
20260508073126 5 212 0.0 0.0 0.00 0.03 0.03 99 1006.6
20260508072621 5 213 0.0 0.0 0.00 0.03 0.03 99 1006.9
20260508072118 5 213 0.0 0.0 0.00 0.03 0.03 99 1006.8
20260508071616 5 201 0.0 0.0 0.00 0.03 0.03 99 1007.1
20260508071114 5 200 0.0 0.0 0.00 0.03 0.03 99 1006.8
20260508070611 4 219 0.0 0.0 0.00 0.03 0.03 99 1007.0
20260508070110 5 219 0.0 0.0 0.00 0.03 0.03 99 1007.0
20260508065607 5 216 0.0 0.0 0.00 0.03 0.03 99 1006.8
20260508065104 5 216 0.0 0.0 0.00 0.03 0.03 99 1007.1